Regional Weather Roundup
Issued by NWS Wakefield, VA

Home | Current Version | Previous Version | Graphics & Text | Print | Product List | Glossary On
Versions: 1 2 3 4 5 6 7 8 9 10 11 12 13 14 15 16 17 18 19 20 21 22 23 24 25 26 27 28 29 30 31 32 33 34 35 36 37 38 39 40 41 42 43 44 45 46 47 48 49 50
480
ASUS41 KAKQ 291315
RWRAKQ

REGIONAL WEATHER ROUNDUP
NATIONAL WEATHER SERVICE WAKEFIELD VA
900 AM EDT FRI JUL 29 2016

Note: "fair" indicates few or no clouds below 12,000 feet with no
significant weather and/or obstructions to visibility. * = Denotes
station may not report precipitation (e.g., rain,snow,etc.),
thunder or fog.

VAZ042-051-052>054-056-291400-
NORTHERN VIRGINIA

CITY           SKY/WX    TMP DP  RH WIND       PRES   REMARKS
WASH NATIONAL  PTSUNNY   77  71  82 N12       29.88R
DULLES         CLOUDY    74  70  87 NW8       29.90R
FORT BELVOIR   CLOUDY    76  70  82 VRB6      29.88R
QUANTICO       PTSUNNY   77  71  82 NE10      29.89R
FREDERICKSBRG* CLOUDY    75  75 100 N7        29.88R
STAFFORD*      CLOUDY    74  70  88 NW5       29.92S
WARRENTON      CLOUDY    75  67  76 N9        29.90R
CULPEPER*      PTSUNNY   75  71  88 N7        29.91S
MANASSAS*      NOT AVBL
LEESBURG*      CLOUDY    77  73  88 NW12      29.91R
WINCHESTER     CLOUDY    72  68  88 NW3       29.93R
FRONT ROYAL*   CLOUDY    72  68  88 CALM      29.93R
LURAY*         NOT AVBL
$$

VAZ048-049-060>072-079>083-291400-
CENTRAL AND SOUTH CENTRAL VIRGINIA

CITY           SKY/WX    TMP DP  RH WIND       PRES   REMARKS
RICHMOND       PTSUNNY   76  72  87 NW10      29.88R
CHESTERFIELD*  CLOUDY    75  63  64 N7        29.89R
PETERSBURG*    CLOUDY    80  74  82 NW8       29.89R
HANOVER        CLOUDY    74  70  87 CALM      29.90R
TAPPAHANNOCK*  CLOUDY    76  76 100 CALM      29.87R
QUINTON*       CLOUDY    75  74  99 NW3       29.86R FOG
CHARLOTTSVILLE FAIR      80  70  71 NE5       29.91R
GORDONSVILLE*  CLOUDY    76  72  88 NE6       29.91R
ORANGE*          N/A     75  73  94 CALM      29.93R
LOUISA*        CLOUDY    77  73  88 N3        29.89F
BUMPASS*       CLOUDY    73  71  96 N5        29.89S
FARMVILLE*     PTSUNNY   77  77  98 CALM      29.90R
CREWE*         NOT AVBL
FORT PICKETT*  PTSUNNY   77  76  95 N8        29.90R
CHASE CITY*    FAIR      78  74  87 W3        29.90R
CLARKSVILLE*   FAIR      79  72  78 NW6       29.90R
SOUTH HILL*    PTSUNNY   79  73  82 NW5       29.95R
LAWRENCEVILLE* PTSUNNY   76  73  90 NW5       29.89R
EMPORIA*       FAIR      81  72  74 NW9       29.89R
$$

VAZ088>098-291400-
SOUTHEAST VIRGINIA

CITY           SKY/WX    TMP DP  RH WIND       PRES   REMARKS
NORFOLK        FAIR      83  72  69 W9        29.84R
VIRGINIA BEACH FAIR      90  72  55 W13       29.83R HX  97
NORFOLK NAVAL  FAIR      82  73  74 W12G20    29.86R
WEST POINT*    CLOUDY    77  75  93 NW3       29.87R
SALUDA*        CLOUDY    78  76  95 W7        29.85R
NEWPORT NEWS   CLOUDY    81  74  79 NW9       29.85R
LANGLEY AFB    PTSUNNY   82  76  80 NW12      29.84S
FORT EUSTIS    CLOUDY    80  75  83 NW10      29.83S
WILLIAMSBURG*  FAIR      81  75  83 NW7       29.87R
HR EXEC AP*    FAIR      82  73  74 W6        29.87R
FRANKLIN*      FAIR      81  73  76 W9        29.87R
US460-WAKEFLD  CLOUDY    79  72  79 VRB5      29.87R
$$

VAZ020-022-025-037-045-291400-
WEST CENTRAL AND SOUTHWEST VIRGINIA

CITY           SKY/WX    TMP DP  RH WIND       PRES   REMARKS
STAUNTON*      FAIR      73  68  82 N7        29.97R
WAYNESBORO*    PTSUNNY   72  68  86 NW6       29.96S
HOT SPRINGS VA FOG       64  64 100 W10       30.07R VSB 1
LYNCHBURG      FAIR      77  70  79 NW5       29.94R
DANVILLE       FAIR      78  68  71 NW8       29.92R
SOUTH BOSTON*  FAIR     N/A N/A N/A NW9       29.90R
MARTINSVILLE   FAIR      77  66  68 NW9       29.98R
ROANOKE        CLOUDY    76  68  76 W10       29.98R
BLACKSBURG     CLOUDY    71  67  85 NW3       30.06S
DUBLIN*        CLOUDY    73  67  81 NW7       30.05R
MARION*        CLOUDY    70  67  90 W6        30.09S
HILLSVILLE*    PTSUNNY   69  67  92 W10       30.05R
RICHLANDS*     CLOUDY    67  67 100 W5        30.08S
WISE*          CLOUDY    68  68 100 W6        30.09S
ABINGDON*      CLOUDY    72  69  92 W6        30.07R
$$

MDZ021>025-VAZ099-100-291400-
SOUTHERN MARYLAND AND THE DELMARVA PENINSULA

CITY           SKY/WX    TMP DP  RH WIND       PRES   REMARKS
PATUXENT RIVER CLOUDY    75  72  90 NW13      29.84R
BAY BRIDGE APT CLOUDY    75  72  88 N8        29.86R
LEONARDTOWN    CLOUDY    73  70  88 MISG        N/A
DOVER          CLOUDY    74  74 100 N16G23    29.82R
GEORGETOWN     CLOUDY    76  74  93 NW7       29.83R
EASTON         CLOUDY    75  75 100 N10       29.88R
CAMBRIDGE      PTSUNNY   75  72  88 N9        29.83R
SALISBURY      NOT AVBL
OCEAN CITY       N/A    N/A N/A N/A MISG      29.80S
WALLOPS ISLAND PTSUNNY   79  75  87 W3        29.82S
ACCOMACK*      CLOUDY    81  73  78 W8        29.83R
$$

NCZ012>017-030>032-291400-
NORTH CENTRAL AND EASTERN NORTH CAROLINA

CITY           SKY/WX    TMP DP  RH WIND       PRES   REMARKS
ROANOKE RAPIDS FAIR      81  72  74 W7        29.88R
RALEIGH        MOSUNNY   81  70  69 NW8       29.91R
ELIZABETH CITY SUNNY     85  72  65 W14       29.85S
AHOSKIE*       SUNNY     81  73  77 CALM      29.87S
EDENTON*       SUNNY     86  71  60 W7        29.88R
CURRITUCK*     SUNNY     85  73  68 SW14      29.86S
KILL DEVIL HLS SUNNY     87  73  61 SW9G16    29.85S
MANTEO           N/A     85  75  71 W13       29.87S
CAPE HATTERAS  SUNNY     83  77  82 SW12      29.90R
TARBORO*       FAIR      84  73  69 W6        29.89R
GOLDSBORO      SUNNY     85  74  68 SW14      29.88R
WASHINGTON     SUNNY     83  74  73 W10       29.88S
GREENVILLE     SUNNY     84  73  70 W10       29.90S
NEW BERN       SUNNY     86  74  67 SW9G16    29.91R
WILMINGTON     SUNNY     86  73  65 SW16      29.93R
$$

VAZ048-291400-
ELSEWHERE

CITY           SKY/WX    TMP DP  RH WIND       PRES   REMARKS
HARRISBURG PA  MOSUNNY   76  71  85 W8        29.87S
BALTIMORE      CLOUDY    75  69  81 VRB7      29.87R
ANNAPOLIS      CLOUDY    76  72  87 N10       29.86R
ANDREWS AFB    PTSUNNY   75  70  86 N8        29.87S
PHILADELPHIA   CLOUDY    74  71  91 NE8       29.85S
GREENSBORO     PTSUNNY   80  66  62 NW12      29.95R
ROCKY MOUNT    SUNNY     83  73  72 W7        29.89R
$$

VAZ100-291400-
MARINE

STATION/POSITION TIME  TEMP    WIND        PRES    WAVE   SWELL
                       AIR SEA DIR/SP/G            HT/PER HT/PER
                 (UTC) (F)     (DEG/KT/KT) (MB)    (FT/S) (FT/S)
BRANDYWINE LGT   1200   74     210/ 11/ 12   N/A
CAPE MAY NJ      1200   75 72  160/  4/  5 1008.2R
LEWES DE         1200   76 73  280/  3/  4 1008.8R
OCEAN-CITY-INLET 1200   75 71  340/  2/  2 1009.4R
WACHAPREAGUE VA  1200   80 84  270/  3/  8 1009.5R
THOMAS POINT MD  1300   75 83   10/ 16/ 17 1012.1R
GOOSES REEF MD   1200   78 85  350/ 17/ 21 1011.0R   2/ 5
COVE POINT MD    1200   77     360/ 17/ 21 1010.6R
SOLOMONS ISLAND  1200   77 85  330/  9/ 12   N/A
BISHOPS HEAD MD  1200   80     290/ 12/ 13 1009.9R
PINEY POINT MD   1200          360/ 13/ 15   N/A
POTOMAC MD       1200   79 85  320/ 12/ 16 1009.0R   1/ 2
CAMBRIDGE MD     1200   76 87  360/  7/  9 1009.0R
LEWISETTA VA     1200   77 86  310/  7/  8 1009.7R
RAPPAHANNOCK LGT 1200          310/ 17/ 19 1010.5R
STINGRAY PT      1200   78 85  260/ 14/ 17 1010.4R   1/ 2
YORK RVR RNG VA  1200   79     310/ 15/ 17 1009.8R
YORKTOWN VA      1200   79 85  300/ 13/ 16 1009.9R
JAMESTOWN VA     1200   79 89  320/ 14/ 17   N/A     1
DOMINION TERM VA 1200   81     300/ 15/ 18 1010.3R
KIPTOPEKE VA     1200      79  290/ 17/ 19   N/A
CHES BAY BRIDGE  1200   81 81  240/ 15/ 17 1009.8R
CAPE HENRY VA    1200   82     250/  7/ 14   N/A
WILLOUBY STN VA  1200   81     280/ 18/ 21   N/A
CAPE HENRY BUOY  1212      75                N/A     2/ 4
1ST LANDING BUOY 1200   82 80  260/ 14/ 16 1009.6R   2/ 3
CAPE CHARLES BUO 1226      76                N/A     2/ 3
OFFSHORE WE BUOY 1221      82                N/A     3/ 4
64NM E OF VA BCH 1250   83 83  220/ 14/ 17 1010.2R   3/ 5   2/ 8
DUCK PIER NC     1200   83 66  230/ 13/ 16 1010.1R
44100 DUCK FRF   1205      80                N/A     2/ 3
44056 DUCK FRF   1211      72                N/A     1/14
OREGON INLET NC  1200   84 84  230/ 16/ 18 1011.2R
HATTERAS NC      1200   83 83  230/  8/ 11 1012.0R
DIAMOND SHLS NC  1250   84 85  240/ 17/ 19 1012.5R   4/ 6   2/ 9
CAPE LOOKOUT NC  1300   86     250/ 14/ 18 1012.6S
$$




USA.gov is the U.S. government's official web portal to all federal, state and local government web resources and services.